JR3QFB-13 Weather Reports


time (UTC)temp
C
wind
direction
speed
KPH
gust
KPH
rain 1hr
cm
rain 24hr
cm
rain mn
cm
humidity
%
barometer
mb
20260903045142 31 270 0.0 1.6 0.00 0.00 0.00 80 1009.7
20260903043639 30 270 1.6 3.2 0.00 0.00 0.00 80 1009.6
20260903042138 30 270 0.0 4.8 0.00 0.00 0.00 80 1009.8
20260903040634 30 270 3.2 4.8 0.00 0.00 0.00 80 1009.8
20260903035132 30 270 1.6 4.8 0.00 0.00 0.00 80 1009.7
20260903033629 30 270 1.6 6.4 0.00 0.00 0.00 80 1009.5
20260903032128 30 270 4.8 6.4 0.00 0.00 0.00 81 1009.5
20260903030624 30 270 0.0 1.6 0.00 0.00 0.00 80 1009.6
20260903025122 30 270 1.6 3.2 0.00 0.00 0.00 81 1009.8
20260903023619 30 270 3.2 4.8 0.00 0.00 0.00 81 1009.6
20260903022118 30 270 0.0 6.4 0.00 0.00 0.00 81 1009.8
20260903020614 30 270 0.0 4.8 0.00 0.00 0.00 81 1009.7
20260903015112 30 270 1.6 4.8 0.00 0.00 0.00 82 1010.0
20260903013609 30 270 4.8 4.8 0.00 0.00 0.00 82 1010.1
20260903012108 30 270 1.6 3.2 0.00 0.00 0.00 83 1010.4
20260903010604 30 270 1.6 4.8 0.00 0.00 0.00 83 1010.6
20260903005102 30 270 3.2 6.4 0.00 0.00 0.00 83 1010.7
20260903003559 30 270 0.0 1.6 0.00 0.00 0.00 83 1010.8
20260903002058 30 270 1.6 4.8 0.00 0.00 0.00 84 1010.8
20260903000554 30 270 3.2 4.8 0.00 0.00 0.00 84 1010.8
20260902235052 30 270 0.0 4.8 0.00 0.00 0.00 84 1011.0
20260902233549 30 270 6.4 6.4 0.00 0.00 0.00 84 1010.7
20260902232048 30 270 1.6 3.2 0.00 0.00 0.00 83 1010.4
20260902230544 30 270 0.0 3.2 0.00 0.00 0.00 84 1010.4
20260902225042 29 270 0.0 3.2 0.00 0.00 0.00 83 1010.1
20260902223539 29 270 3.2 4.8 0.00 0.00 0.00 84 1010.1
20260902222038 29 270 3.2 3.2 0.00 0.00 0.00 83 1010.4
20260902215031 29 270 0.0 3.2 0.00 0.00 0.00 84 1009.9
20260902213530 29 270 0.0 3.2 0.00 0.00 0.00 84 1010.0
20260902212028 29 270 0.0 3.2 0.00 0.00 0.00 83 1009.8
20260902205021 28 270 1.6 3.2 0.00 0.00 0.00 83 1009.4
20260902203519 28 270 1.6 4.8 0.00 0.00 0.00 83 1009.3
20260902202017 28 270 1.6 3.2 0.00 0.00 0.00 83 1009.4
20260902200514 28 270 0.0 3.2 0.00 0.00 0.00 83 1009.2
20260902195011 28 270 0.0 3.2 0.00 0.00 0.00 83 1009.3
20260902193509 28 270 3.2 3.2 0.00 0.00 0.00 82 1009.1
20260902192007 28 270 1.6 4.8 0.00 0.00 0.00 81 1009.4
20260902190504 28 270 0.0 4.8 0.00 0.00 0.00 80 1009.7
20260902185001 28 270 1.6 4.8 0.00 0.00 0.00 77 1009.8
20260902183459 28 270 0.0 3.2 0.00 0.00 0.00 74 1009.7
20260902181957 28 270 0.0 4.8 0.00 0.00 0.00 73 1010.1
20260902180454 28 270 1.6 4.8 0.00 0.00 0.00 71 1010.1
20260902174951 28 270 0.0 4.8 0.00 0.00 0.00 71 1009.7
20260902173449 28 270 1.6 4.8 0.00 0.00 0.00 73 1010.2
20260902171947 28 270 1.6 4.8 0.00 0.00 0.00 70 1010.3
20260902170444 28 270 1.6 6.4 0.00 0.00 0.00 74 1010.4
20260902164941 28 270 1.6 6.4 0.00 0.00 0.00 74 1010.5
20260902163439 28 270 1.6 1.6 0.00 0.00 0.00 69 1010.4
20260902161937 28 270 1.6 3.2 0.00 0.00 0.00 69 1010.6
20260902160434 28 270 3.2 4.8 0.00 0.00 0.00 71 1010.6
20260902154931 28 270 3.2 4.8 0.00 0.00 0.00 73 1010.7
20260902153429 28 270 1.6 4.8 0.00 0.00 0.00 71 1010.8
20260902151927 28 270 1.6 3.2 0.00 0.00 0.00 69 1010.9
20260902150424 28 270 1.6 4.8 0.00 0.00 0.00 73 1010.7
20260902144921 28 270 1.6 1.6 0.00 0.00 0.00 74 1010.8
20260902143419 28 270 1.6 3.2 0.00 0.00 0.00 71 1010.8
20260902141917 28 270 4.8 6.4 0.00 0.00 0.00 72 1010.9
20260902140414 28 270 6.4 6.4 0.00 0.00 0.00 76 1010.7
20260902134911 28 270 0.0 6.4 0.00 0.00 0.00 72 1010.7
20260902133409 28 270 6.4 6.4 0.00 0.00 0.00 74 1010.9
20260902131907 28 270 3.2 8.0 0.00 0.00 0.00 78 1011.3
20260902130404 28 270 3.2 6.4 0.00 0.00 0.00 78 1011.1
20260902124901 28 270 1.6 6.4 0.00 0.00 0.00 77 1011.1
20260902123359 28 270 3.2 12.9 0.00 0.00 0.00 76 1011.3
20260902121857 28 270 1.6 3.2 0.00 0.00 0.00 76 1011.5
20260902120354 28 270 1.6 4.8 0.00 0.00 0.00 76 1011.3
20260902114851 28 270 3.2 3.2 0.00 0.00 0.00 77 1011.1
20260902113349 28 270 3.2 6.4 0.00 0.00 0.00 76 1011.0
20260902111847 28 270 1.6 6.4 0.00 0.00 0.00 76 1010.9
20260902110344 28 270 6.4 6.4 0.00 0.00 0.00 75 1010.8
20260902104841 28 270 1.6 4.8 0.00 0.00 0.00 74 1010.8
20260902103339 28 270 0.0 1.6 0.00 0.00 0.00 72 1010.6
20260902101837 28 270 4.8 4.8 0.00 0.00 0.00 79 1010.7
20260902100334 28 270 0.0 1.6 0.00 0.00 0.00 69 1010.6
20260902094831 28 270 0.0 0.0 0.00 0.00 0.00 69 1010.4
20260902093329 28 270 0.0 0.0 0.00 0.00 0.00 69 1010.2
20260902091827 29 270 0.0 0.0 0.00 0.00 0.00 69 1010.0
20260902090324 29 270 0.0 1.6 0.00 0.00 0.00 70 1010.2
20260902084821 29 270 0.0 0.0 0.00 0.00 0.00 69 1009.8
20260902083319 29 270 0.0 1.6 0.00 0.00 0.00 70 1009.9
20260902081817 30 270 0.0 0.0 0.00 0.00 0.00 71 1010.1
20260902080314 30 270 0.0 1.6 0.00 0.00 0.00 72 1010.2
20260902074813 30 270 0.0 4.8 0.00 0.00 0.00 72 1010.4
20260902073309 30 270 1.6 3.2 0.00 0.00 0.00 72 1010.5
20260902071807 30 270 1.6 6.4 0.00 0.00 0.00 71 1010.3
20260902070306 30 270 1.6 3.2 0.00 0.00 0.00 70 1010.1
20260902064801 30 270 0.0 3.2 0.00 0.00 0.00 69 1010.1
20260902063259 31 270 3.2 11.3 0.00 0.00 0.00 66 1010.3
20260902061757 31 270 6.4 14.5 0.00 0.00 0.00 63 1010.1
20260902060254 31 270 3.2 3.2 0.00 0.00 0.00 65 1010.0
20260902054751 31 270 1.6 8.0 0.00 0.00 0.00 64 1010.1
20260902053249 31 270 0.0 3.2 0.00 0.00 0.00 61 1010.2
20260902051747 32 270 3.2 6.4 0.00 0.00 0.00 66 1010.3